Terminal Aerodrome Forecast
Issued by NWS

Home | Current Version | Previous Version | Text Only | Print | Product List | Glossary On
Versions: 1 2 3 4 5 6 7 8 9 10 11 12 13
025
FTPA31 PHFO 292320
TAFSTU
TAF
NSTU 292320Z 3000/3024 12015KT P6SM FEW020 SCT040 BKN150=

USA.gov is the U.S. government's official web portal to all federal, state and local government web resources and services.